Wind_Speed
8 8 7 7 6 9 9 6 8 8 9 8 7 8 8 8 7 6 6 5 4 5 5 6 7 8 7 7 7 6 6 6 6 6 7 7 7 7 6 6 6 6 6 6 5 5 4 4 5
8 6 6 6 7 11 8 5 9 9 9 9 8 7 8 8 7 7 7 6 5 6 5 6 7 7 8 8 7 7 7 7 7 7 6 6 6 6 6 6 5 5 5 4 4 4 4 4 4
7 5 5 5 8 9 7 8 11 11 9 9 8 7 8 9 8 8 8 8 7 7 7 7 8 8 8 8 8 7 7 7 7 7 6 6 6 6 5 5 5 5 4 3 3 3 3 3 3
6 5 4 5 7 4 7 10 10 10 10 9 9 8 8 9 9 8 8 8 7 7 7 8 8 8 8 8 8 8 8 7 7 7 7 6 6 5 5 4 4 4 3 3 2 2 2 2 2
5 4 4 6 5 4 10 11 9 9 9 9 10 10 7 8 8 9 8 8 7 7 8 9 9 9 9 9 8 9 9 8 8 8 7 6 6 5 5 4 3 3 2 2 2 2 2 1 1
5 4 5 6 3 6 12 11 8 8 9 9 10 11 10 8 8 9 9 8 7 7 8 9 10 10 10 9 9 9 9 9 9 8 7 7 6 5 5 4 3 2 2 2 2 2 2 2 1
6 5 3 3 4 9 14 11 9 8 9 9 11 12 10 8 9 10 9 9 7 7 9 10 10 10 11 11 10 10 10 9 9 9 8 8 7 6 5 4 3 3 2 2 2 2 2 2 2
6 5 1 0 5 10 15 13 10 9 11 11 12 13 11 11 10 11 11 9 8 7 8 9 10 11 11 12 12 11 11 11 10 10 9 8 8 7 6 5 4 3 3 2 2 2 2 2 2
6 4 0 1 5 10 14 13 11 10 13 13 14 14 12 11 11 11 11 10 9 8 8 9 10 12 12 13 13 13 12 12 11 11 10 9 8 8 7 6 4 3 3 3 2 3 3 2 2
6 4 1 3 7 10 12 12 11 12 13 14 14 13 12 12 12 11 11 11 10 9 9 10 11 12 13 14 15 14 13 13 13 12 11 10 9 9 8 7 5 4 3 3 3 3 3 3 2
8 7 6 8 11 12 12 12 12 12 14 15 15 14 13 12 12 12 12 12 11 10 10 11 12 13 13 15 16 15 15 15 14 13 13 11 10 9 8 7 6 5 4 4 3 4 3 3 2
10 9 10 10 12 14 13 12 12 12 15 17 16 16 15 14 13 13 13 12 12 11 11 12 13 14 14 15 17 17 16 15 15 14 14 12 11 10 9 7 6 6 5 4 4 4 4 3 3
13 12 12 13 14 14 13 13 12 12 15 16 16 16 16 15 14 14 13 13 13 12 12 12 13 14 15 15 17 17 17 17 16 15 14 13 12 10 9 8 7 6 6 5 5 5 4 4 3
14 14 13 14 14 14 13 12 11 13 15 16 16 17 17 16 16 15 15 15 14 14 13 13 14 14 15 15 16 17 17 17 16 15 15 13 12 11 10 9 7 7 6 6 5 5 4 3 3
15 14 13 13 13 13 12 12 12 14 14 16 17 17 17 17 16 16 16 16 16 15 14 14 14 15 16 16 16 17 17 17 17 16 15 14 13 12 11 10 8 7 7 6 6 5 5 4 4
13 13 13 11 11 12 13 12 13 14 15 16 17 18 18 17 17 17 17 17 17 17 16 16 15 15 16 17 17 17 17 18 18 17 16 15 14 12 11 10 9 8 7 7 6 5 5 5 4
12 12 11 10 13 14 13 13 14 14 15 16 16 17 18 17 17 17 17 18 18 18 17 17 17 16 16 17 17 18 18 19 19 18 17 16 15 13 12 10 10 8 7 7 7 6 5 5 4
10 10 11 13 15 14 13 14 14 15 15 16 16 17 17 17 17 18 18 18 19 18 18 17 17 16 16 17 17 17 18 19 19 18 18 17 15 14 12 11 11 10 9 8 7 7 6 5 5
13 14 15 15 15 15 14 14 15 16 14 15 17 17 17 17 18 20 18 18 19 19 19 18 18 17 17 17 17 17 18 19 19 19 18 18 16 15 14 12 11 11 10 9 8 8 7 6 5
15 15 14 15 14 14 15 14 15 16 16 16 18 18 18 18 19 19 17 19 18 19 19 19 18 17 17 17 17 18 18 19 20 20 19 18 17 16 14 13 12 11 11 10 9 9 8 7 7
17 17 15 15 14 14 15 15 16 17 17 16 16 17 18 18 18 18 18 17 16 17 17 17 18 18 18 18 17 17 18 19 20 20 20 19 18 17 15 14 13 12 11 11 10 9 9 8 7
17 16 16 16 16 15 16 17 17 17 18 16 15 15 17 18 17 16 17 16 16 16 16 15 17 17 17 18 17 18 20 20 20 21 21 20 19 18 16 15 15 14 12 12 11 11 10 10 9
17 15 16 17 18 18 18 17 17 17 17 17 16 14 17 17 16 17 17 16 15 15 14 14 17 17 17 18 18 19 20 20 21 21 20 20 19 18 18 17 16 15 14 13 13 12 11 11 10
17 17 17 16 16 17 16 16 16 17 17 16 14 14 17 17 16 16 15 15 13 12 13 13 15 16 16 18 19 18 19 20 20 21 20 20 19 19 19 18 17 16 15 14 13 13 12 11 10
18 17 16 16 16 16 16 17 17 15 15 16 17 17 17 16 15 15 14 12 10 10 11 11 12 13 14 16 18 18 18 20 20 20 20 20 20 19 19 19 18 17 16 15 14 13 13 12 11
18 17 17 16 16 16 18 17 14 12 15 17 18 19 18 16 14 13 12 11 9 9 9 9 9 10 12 15 16 17 17 18 19 20 20 20 20 20 20 19 18 18 17 16 15 14 13 12 12
18 18 17 17 18 17 15 12 14 12 13 16 17 17 16 14 13 11 10 9 9 9 8 7 8 9 11 13 15 16 17 18 19 19 19 19 19 19 19 19 18 18 17 16 15 15 14 13 13
19 17 17 19 19 17 15 12 12 11 12 14 15 15 14 12 12 10 8 7 7 8 7 7 6 8 10 12 13 15 17 18 18 19 19 19 19 19 19 19 18 17 17 16 16 16 15 14 14
19 19 19 17 18 17 16 15 14 12 13 13 14 14 13 12 12 10 7 7 7 6 6 6 6 7 9 10 11 13 15 16 17 18 19 18 18 18 18 19 19 18 17 16 17 17 16 16 15
19 20 21 20 20 19 18 20 18 14 14 12 13 14 12 13 11 10 8 7 7 6 5 5 5 5 7 8 10 11 13 14 15 16 17 17 18 18 18 18 18 18 17 17 17 17 17 17 17
Wind_Direction
22 27 31 33 32 42 53 16 328 324 326 330 320 309 299 295 293 282 284 264 237 220 201 199 194 191 194 200 203 202 202 198 189 180 170 158 147 138 130 123 118 114 109 107 104 97 91 85 84
18 21 33 31 27 27 25 344 318 320 325 327 320 307 300 305 301 292 283 274 255 236 219 209 202 199 200 203 205 203 205 204 199 191 179 165 153 147 141 133 126 123 117 112 107 102 94 87 88
13 13 30 25 40 26 346 316 311 317 324 327 317 308 318 318 310 296 286 280 267 248 229 217 210 207 207 205 208 209 209 210 206 200 190 177 165 158 152 144 136 130 123 117 113 112 107 102 96
5 12 31 47 48 360 308 300 304 313 323 325 317 306 314 314 311 300 291 280 267 252 237 224 218 215 215 213 213 217 217 213 210 206 199 190 178 172 166 157 149 140 129 123 127 129 127 120 112
352 2 24 52 36 309 290 295 308 312 317 316 311 305 317 317 308 302 296 287 272 255 245 236 226 222 220 218 220 222 220 216 216 213 208 203 196 189 182 176 170 160 149 140 150 163 156 145 143
334 345 27 23 318 278 292 299 300 307 313 309 303 304 311 316 311 304 298 292 277 256 248 241 236 229 222 220 222 223 223 222 220 220 218 215 207 201 194 190 189 187 179 168 170 186 188 183 168
314 326 15 334 294 283 286 294 293 296 296 299 304 305 307 312 309 305 301 297 281 261 252 244 239 232 225 222 223 224 225 225 224 224 224 221 215 210 205 204 206 204 196 186 193 199 202 197 189
302 303 340 255 282 278 282 289 288 291 291 295 297 297 302 304 304 302 299 297 289 272 252 245 240 233 230 227 224 225 226 226 226 226 227 226 221 219 217 217 218 216 207 200 197 202 207 205 203
289 288 313 231 262 266 279 289 293 293 292 295 296 296 300 301 302 301 299 297 293 279 254 247 242 236 233 232 228 228 228 229 228 226 227 225 224 225 226 226 224 221 214 211 206 204 205 202 201
271 270 247 247 248 258 271 283 286 289 288 288 290 295 301 302 301 298 298 298 294 279 257 249 246 241 234 234 230 229 229 229 228 227 228 226 227 228 230 230 226 220 222 223 215 201 195 195 199
263 260 250 242 249 252 261 272 276 284 283 281 286 302 304 303 299 294 294 296 291 284 268 255 250 243 237 233 230 230 230 229 229 228 228 227 228 230 232 233 232 229 231 220 211 193 185 187 202
266 257 257 252 257 260 260 266 272 279 282 286 293 304 306 304 299 295 291 292 290 287 276 265 254 246 241 236 230 228 230 230 231 229 226 228 230 231 233 236 242 239 231 218 209 199 192 199 210
270 266 263 260 261 268 267 268 272 274 277 284 292 300 301 300 295 293 291 290 294 294 288 275 262 252 246 242 233 229 230 230 229 229 229 232 234 234 236 239 239 241 232 222 214 199 202 200 195
266 266 264 265 268 272 273 271 269 271 276 284 291 295 296 296 292 290 289 287 289 292 289 279 268 255 248 244 237 233 231 230 228 229 230 232 234 235 237 240 240 239 232 227 223 214 208 206 203
263 263 266 267 269 272 275 273 267 268 272 281 287 292 293 292 292 289 287 285 286 288 284 280 270 254 245 244 243 235 232 231 229 229 232 231 230 232 235 237 237 237 232 228 228 226 219 217 218
262 266 268 270 272 267 268 270 268 267 271 280 287 290 292 291 291 289 286 285 285 286 287 280 271 258 250 248 243 238 233 231 230 231 231 230 230 233 234 233 235 235 234 230 228 228 227 222 221
260 267 270 268 257 253 260 266 272 273 277 286 291 292 290 291 291 290 287 284 284 285 284 280 271 260 251 246 243 238 235 234 230 230 232 231 231 233 233 234 237 236 236 230 224 226 229 225 224
257 269 266 255 250 252 257 265 271 275 276 286 291 294 292 290 291 291 289 283 281 281 281 280 275 260 252 250 245 236 237 235 230 229 231 231 230 233 234 237 238 236 236 233 230 229 230 230 230
236 240 248 248 246 251 258 261 265 272 273 283 291 295 294 293 293 293 290 284 281 279 278 277 271 263 255 252 246 238 234 232 230 228 230 230 230 232 233 234 234 234 237 240 237 232 229 227 226
242 238 242 249 248 254 259 260 261 269 278 283 291 295 294 293 294 297 292 290 284 281 276 272 266 260 257 251 245 238 231 229 229 229 228 227 228 228 231 231 233 234 236 237 239 237 231 230 229
238 235 236 245 249 256 264 266 261 263 266 271 286 296 296 298 297 302 300 293 289 284 276 267 260 257 253 248 242 234 229 230 229 229 227 226 225 227 230 229 231 231 233 235 235 236 231 231 230
235 232 232 240 249 255 261 265 265 271 274 272 282 292 300 301 297 300 300 294 288 283 278 264 254 252 248 242 239 235 233 231 231 231 229 226 226 227 231 230 231 232 233 233 234 235 234 232 231
229 230 235 239 244 243 249 258 265 274 281 286 293 298 300 299 299 299 300 296 289 282 276 261 251 250 244 238 238 236 234 232 230 229 228 226 226 227 230 231 233 233 233 234 233 235 234 230 229
227 230 235 240 240 246 250 254 263 272 284 292 294 297 299 298 299 301 300 296 291 283 273 262 252 246 239 234 235 239 236 234 231 229 226 225 226 228 230 230 232 232 233 233 234 235 233 229 227
227 229 235 244 245 250 246 245 254 271 285 289 289 290 297 298 299 302 301 296 285 277 278 267 255 244 236 234 235 235 234 233 229 225 222 223 226 228 227 226 229 231 232 232 232 233 228 228 226
228 226 231 240 253 248 242 237 237 257 276 283 286 288 293 297 297 300 300 294 282 276 275 273 254 239 236 236 236 231 229 227 224 221 218 219 224 225 225 226 229 231 233 233 229 226 226 228 229
223 225 231 243 252 257 262 247 233 245 267 282 290 290 291 294 298 299 300 294 281 278 272 269 253 239 235 235 233 227 224 222 219 218 216 219 220 221 223 224 228 231 233 230 226 225 228 233 232
223 228 231 237 251 265 274 269 254 249 271 281 295 297 294 295 297 297 301 301 289 279 270 269 257 242 239 237 230 222 219 218 216 213 215 218 219 220 222 223 226 228 228 228 229 230 233 235 235
223 219 230 233 235 252 263 260 255 255 263 273 286 291 290 294 293 293 301 307 303 276 266 263 258 247 241 234 222 214 214 214 213 211 213 216 217 218 220 222 224 225 227 230 232 233 235 237 239
227 225 228 234 236 238 252 269 265 259 254 261 278 285 283 291 291 292 296 306 313 300 273 262 254 248 242 228 215 212 213 210 211 211 212 216 217 218 222 225 226 227 229 232 234 235 237 239 243
Height
5889 5888 5888 5888 5887 5883 5883 5886 5886 5884 5883 5882 5881 5879 5878 5877 5878 5879 5877 5876 5878 5878 5878 5879 5880 5881 5882 5883 5884 5884 5885 5886 5886 5887 5887 5887 5887 5888 5888 5888 5888 5889 5889 5889 5890 5890 5890 5890 5890
5889 5889 5889 5888 5886 5884 5886 5887 5885 5884 5883 5882 5881 5879 5877 5876 5876 5876 5876 5876 5877 5877 5878 5879 5880 5881 5882 5883 5884 5885 5885 5886 5886 5887 5887 5888 5888 5888 5889 5889 5889 5890 5890 5890 5890 5891 5891 5891 5891
5889 5889 5888 5888 5887 5888 5889 5888 5886 5884 5883 5882 5881 5879 5877 5876 5876 5876 5876 5876 5877 5877 5878 5878 5880 5881 5882 5882 5884 5885 5885 5886 5887 5887 5888 5888 5889 5889 5889 5890 5890 5890 5890 5891 5891 5891 5892 5892 5892
5889 5889 5888 5888 5888 5890 5890 5889 5886 5885 5883 5881 5880 5879 5878 5877 5876 5876 5875 5875 5876 5876 5877 5878 5879 5880 5881 5882 5883 5884 5885 5886 5887 5888 5888 5889 5889 5889 5890 5890 5891 5891 5891 5891 5892 5892 5892 5892 5893
5888 5888 5888 5886 5889 5890 5890 5888 5886 5884 5883 5881 5879 5877 5876 5877 5876 5875 5875 5875 5875 5876 5876 5877 5878 5879 5880 5882 5883 5884 5885 5886 5887 5888 5888 5889 5889 5890 5890 5891 5891 5891 5892 5892 5892 5892 5893 5893 5893
5888 5888 5887 5887 5890 5890 5890 5887 5886 5884 5883 5881 5878 5877 5876 5876 5876 5875 5874 5874 5874 5874 5875 5876 5877 5878 5880 5881 5882 5883 5884 5886 5887 5887 5888 5889 5889 5890 5890 5891 5891 5892 5892 5892 5892 5893 5893 5893 5893
5887 5886 5886 5888 5890 5890 5889 5886 5885 5884 5882 5881 5878 5876 5875 5875 5875 5874 5873 5873 5872 5872 5874 5875 5876 5877 5878 5880 5881 5882 5884 5885 5886 5887 5888 5889 5889 5890 5890 5891 5891 5891 5892 5892 5892 5893 5893 5893 5894
5885 5886 5885 5888 5890 5890 5887 5885 5884 5883 5881 5880 5878 5875 5874 5874 5874 5873 5872 5872 5871 5871 5872 5873 5874 5875 5877 5878 5880 5881 5883 5884 5885 5886 5887 5888 5889 5889 5890 5891 5891 5891 5892 5892 5892 5893 5893 5893 5894
5883 5885 5884 5887 5889 5889 5886 5884 5883 5882 5879 5878 5876 5874 5874 5873 5872 5872 5871 5871 5870 5870 5871 5871 5872 5873 5875 5877 5878 5880 5881 5883 5884 5885 5886 5887 5888 5889 5890 5890 5891 5891 5892 5892 5892 5892 5893 5893 5894
5882 5882 5883 5886 5887 5887 5884 5883 5882 5881 5878 5876 5874 5872 5872 5871 5871 5870 5870 5869 5869 5869 5869 5870 5870 5871 5873 5875 5876 5878 5880 5881 5883 5884 5885 5886 5887 5888 5889 5890 5890 5891 5891 5892 5892 5892 5893 5894 5894
5879 5880 5881 5883 5884 5883 5883 5882 5881 5879 5877 5874 5870 5870 5870 5869 5869 5869 5869 5868 5867 5867 5867 5868 5868 5869 5871 5872 5874 5876 5878 5879 5881 5883 5884 5886 5886 5888 5889 5889 5890 5890 5891 5891 5892 5892 5893 5894 5894
5876 5877 5878 5879 5880 5879 5879 5879 5879 5877 5875 5872 5869 5869 5869 5868 5867 5867 5867 5866 5866 5865 5865 5865 5865 5866 5868 5870 5872 5874 5876 5878 5879 5881 5883 5884 5885 5887 5888 5889 5889 5890 5890 5891 5891 5892 5893 5894 5894
5873 5874 5875 5876 5876 5876 5876 5876 5876 5875 5873 5870 5868 5867 5867 5866 5865 5865 5864 5864 5863 5863 5863 5862 5863 5864 5865 5867 5869 5872 5874 5876 5877 5879 5881 5883 5884 5886 5887 5888 5889 5889 5890 5891 5891 5892 5893 5893 5894
5870 5870 5871 5872 5872 5872 5873 5873 5873 5872 5870 5868 5867 5866 5865 5864 5863 5862 5862 5861 5861 5860 5860 5860 5860 5861 5862 5864 5867 5869 5871 5873 5876 5878 5880 5881 5883 5885 5886 5887 5888 5888 5889 5890 5890 5892 5892 5892 5894
5866 5867 5868 5869 5869 5869 5870 5870 5870 5868 5867 5866 5864 5863 5862 5861 5860 5860 5859 5858 5858 5858 5857 5857 5857 5858 5859 5861 5864 5866 5869 5871 5874 5876 5877 5879 5881 5883 5885 5886 5887 5888 5888 5889 5890 5891 5892 5893 5893
5862 5864 5865 5866 5866 5867 5869 5868 5867 5865 5864 5862 5861 5860 5859 5858 5857 5856 5856 5855 5855 5855 5854 5854 5854 5855 5857 5858 5861 5863 5866 5869 5872 5874 5875 5878 5880 5881 5883 5884 5886 5887 5888 5889 5890 5891 5892 5892 5893
5859 5861 5862 5864 5864 5864 5865 5864 5864 5862 5860 5859 5857 5856 5855 5854 5853 5853 5852 5852 5851 5851 5851 5851 5851 5852 5853 5855 5857 5860 5863 5866 5869 5871 5874 5876 5878 5879 5881 5883 5884 5886 5887 5888 5889 5890 5891 5892 5892
5857 5858 5860 5862 5861 5861 5861 5862 5861 5859 5858 5856 5854 5853 5852 5851 5850 5849 5849 5848 5848 5848 5848 5847 5847 5848 5850 5852 5854 5857 5860 5863 5866 5869 5871 5873 5876 5878 5880 5882 5883 5884 5886 5887 5888 5889 5890 5891 5892
5853 5855 5857 5857 5857 5857 5858 5858 5858 5855 5854 5853 5851 5851 5850 5848 5847 5845 5844 5844 5844 5843 5843 5844 5844 5845 5846 5848 5850 5853 5857 5860 5863 5866 5868 5871 5873 5876 5878 5880 5882 5883 5884 5885 5886 5887 5889 5890 5891
5849 5851 5853 5854 5854 5854 5855 5855 5854 5852 5851 5850 5849 5848 5847 5845 5843 5840 5839 5839 5839 5838 5838 5839 5840 5841 5843 5845 5847 5850 5853 5856 5859 5863 5866 5868 5871 5873 5876 5878 5880 5881 5883 5884 5885 5886 5888 5889 5890
5845 5848 5850 5851 5851 5852 5852 5852 5850 5849 5848 5845 5845 5844 5842 5841 5840 5838 5836 5834 5834 5834 5834 5834 5835 5837 5839 5841 5843 5846 5849 5852 5856 5860 5863 5865 5868 5871 5873 5876 5878 5879 5881 5882 5883 5885 5886 5887 5888
5841 5844 5846 5847 5848 5848 5849 5848 5845 5845 5843 5840 5840 5840 5839 5838 5836 5835 5833 5831 5831 5830 5829 5829 5831 5833 5834 5837 5839 5842 5846 5849 5853 5856 5859 5862 5865 5868 5871 5874 5876 5877 5879 5880 5881 5883 5884 5885 5886
5837 5840 5842 5843 5843 5844 5844 5843 5842 5840 5839 5836 5835 5834 5836 5835 5833 5831 5830 5828 5827 5826 5825 5826 5827 5828 5830 5832 5835 5839 5842 5845 5848 5852 5856 5859 5862 5865 5868 5871 5873 5875 5877 5878 5879 5881 5882 5883 5884
5833 5836 5837 5838 5839 5840 5840 5840 5839 5836 5836 5834 5833 5833 5833 5832 5830 5828 5826 5824 5823 5823 5822 5822 5823 5824 5827 5829 5831 5834 5838 5841 5844 5848 5852 5856 5859 5862 5865 5868 5870 5872 5874 5876 5877 5878 5880 5881 5882
5830 5833 5834 5835 5835 5836 5836 5836 5836 5834 5834 5833 5832 5831 5831 5829 5827 5826 5823 5821 5821 5821 5820 5820 5820 5821 5823 5825 5828 5831 5833 5837 5840 5844 5848 5852 5856 5859 5862 5865 5867 5869 5871 5873 5874 5876 5878 5879 5880
5826 5829 5831 5832 5832 5831 5830 5830 5831 5831 5832 5831 5831 5830 5828 5826 5825 5823 5821 5820 5819 5819 5818 5818 5818 5819 5821 5823 5825 5828 5830 5833 5837 5841 5844 5848 5852 5855 5858 5861 5864 5866 5868 5870 5872 5873 5875 5877 5878
5822 5824 5828 5829 5827 5826 5825 5825 5826 5827 5829 5828 5828 5827 5825 5824 5823 5822 5820 5818 5817 5817 5816 5816 5816 5817 5818 5820 5822 5825 5827 5830 5834 5838 5841 5845 5849 5852 5855 5858 5860 5863 5865 5867 5869 5871 5873 5874 5876
5819 5822 5824 5825 5825 5824 5823 5823 5821 5822 5824 5824 5824 5824 5822 5821 5821 5820 5819 5817 5817 5816 5815 5815 5815 5816 5817 5818 5820 5822 5825 5828 5831 5835 5839 5843 5846 5849 5852 5854 5857 5859 5862 5864 5866 5868 5870 5872 5873
5815 5818 5819 5821 5822 5823 5822 5822 5819 5819 5821 5821 5821 5821 5820 5820 5819 5819 5818 5817 5815 5814 5814 5814 5814 5815 5816 5817 5819 5821 5824 5827 5830 5833 5837 5840 5843 5846 5849 5851 5854 5856 5858 5860 5863 5865 5867 5869 5870
5811 5813 5815 5817 5818 5818 5819 5820 5815 5816 5817 5817 5817 5817 5818 5818 5817 5817 5816 5816 5814 5813 5813 5813 5814 5814 5815 5816 5818 5820 5823 5825 5828 5831 5835 5838 5841 5844 5846 5848 5851 5853 5855 5857 5859 5861 5863 5865 5867